OPS 4682 DEB, 29059

Orbit data source: Space-Track

OPS 4682 DEB, 29059 is space debris in LEO originally from a launch on Sat, 03 Apr 1965 UTC launched from the Air Force Western Test Range (AFWTR). Debris objects in space refer to the collection of defunct objects orbiting the Earth. Examples of debris include non-operational satellites, rocket bodies, and fragments generated from explosions, collisions, or faulty payload assembly.

Loading next visibility...
Identifier
29059, 1965-027BJ
Orbit
LEO
Country
Flag of USUS
Related business
Manufacturer
Unknown
Mission
Spacecraft
Bus & Motor
Unknown
Mass
Unknown
Launch date (UTC)
1965-04-03 (61 years ago)
Launch vehicle
Unknown
Launch site
Air Force Western Test Range (AFWTR)
Object type
Payload
Rocket body
Debris
Shape & HBR
Unknown shape, 0.1 m
Radar Cross Section
Small (<0.1 m²)

Expand to show TLE details & history
Last TLE update: 19 hours ago

TLE from 19 hours ago
0 OPS 4682 DEB
1 29059U 65027BJ  26072.26378520  .00000329  00000-0  11564-2 0  9998
2 29059  90.2438   4.1943 0031520 115.3744  39.5625 12.94301844143206
Epoch: 2026-03-13T06:19Z
TLE epoch observation values (Epoch: 2026-03-13T06:19:51.041Z)
Latitude
24.85665°
Longitude
-81.55781°
Altitude
1,268.901 km
Speed
7.232 km/s
True Right ascension
12h 17m 13s
True Declination
24° 44' 04"
Sunlit
Object was in full shadow at epoch
Visualization orbit readout
Latitude
Unknown
Longitude
Unknown
Altitude
Unknown
Speed
Unknown
Apparent Right ascension
Unknown
Apparent Declination
Unknown
Sunlit
N/A
Visualization observer readout
Local Sidereal Time
05:59:04
Azimuth
Unknown
Elevation
Unknown
Doppler factor
Unknown
Orbital elements
Apogee altitude
1,305.773 km
Perigee altitude
1,257.486 km
Semi-major axis
7,659.767 km
Eccentricity
0.00315
Inclination
90.2438°
RAAN
4.1943°
Arg. of periapsis
115.3744°
True anomaly
39.79325°
Mean anomaly
39.5625°
Eccentric anomaly
39.67781°
Mean motion
3.23758 °/min
Orbital period
111.19 mins
BSTAR
0.0011564
Loading maneuver chart data...
Computing Atmospheric mass density...
Loading historical data...
Loading historical data...
Loading historical data...
Loading historical data...
Loading historical data...
Loading historical data...
Loading historical data...

Documentation

Showing up to 5 results
|